Time,TemperatureF,DewpointF,PressureIn,WindDirection,WindDirectionDegrees,WindSpeedMPH,WindSpeedGustMPH,Humidity,HourlyPrecipIn,Conditions,Clouds,dailyrainin,SoftwareType,DateUTC
2013-04-14 00:05:00,73.5,66.9,29.96,WSW,238,0.0,0.0,80,0.00,,,0.00,Wunderground v.1.15,2013-04-14 04:05:00,
2013-04-14 00:10:00,73.5,66.9,29.96,WSW,238,0.0,0.0,80,0.00,,,0.00,Wunderground v.1.15,2013-04-14 04:10:00,
2013-04-14 00:15:00,73.4,66.9,29.96,WSW,238,0.0,0.0,80,0.00,,,0.00,Wunderground v.1.15,2013-04-14 04:15:00,
2013-04-14 00:20:00,73.4,66.9,29.96,WSW,240,0.0,0.0,80,0.00,,,0.00,Wunderground v.1.15,2013-04-14 04:20:00,
2013-04-14 00:25:00,73.4,66.5,29.96,NE,37,0.0,3.0,79,0.00,,,0.00,Wunderground v.1.15,2013-04-14 04:25:00,
2013-04-14 00:35:00,73.4,66.5,29.95,NNE,32,0.0,1.0,79,0.00,,,0.00,Wunderground v.1.15,2013-04-14 04:35:00,
2013-04-14 00:40:00,73.2,65.9,29.95,NNE,32,0.0,2.0,78,0.00,,,0.00,Wunderground v.1.15,2013-04-14 04:40:00,
2013-04-14 00:45:00,73.1,65.5,29.95,NNE,32,0.0,0.0,77,0.00,,,0.00,Wunderground v.1.15,2013-04-14 04:45:00,
2013-04-14 00:50:00,73.0,65.0,29.94,NNE,32,0.0,0.0,76,0.00,,,0.00,Wunderground v.1.15,2013-04-14 04:50:00,
2013-04-14 00:55:00,73.0,64.6,29.94,NNE,32,0.0,0.0,75,0.00,,,0.00,Wunderground v.1.15,2013-04-14 04:55:00,
2013-04-14 01:00:00,73.0,64.6,29.94,NNE,32,0.0,0.0,75,0.00,,,0.00,Wunderground v.1.15,2013-04-14 05:00:00,
2013-04-14 01:10:00,73.0,64.6,29.94,NNE,32,0.0,0.0,75,0.00,,,0.00,Wunderground v.1.15,2013-04-14 05:10:00,
2013-04-14 01:20:00,72.9,64.5,29.95,NNE,32,0.0,0.0,75,0.00,,,0.00,Wunderground v.1.15,2013-04-14 05:20:00,
2013-04-14 01:30:00,72.8,64.0,29.95,NNE,32,0.0,0.0,74,0.00,,,0.00,Wunderground v.1.15,2013-04-14 05:30:00,
2013-04-14 01:40:00,72.8,64.0,29.94,NNE,32,0.0,0.0,74,0.00,,,0.00,Wunderground v.1.15,2013-04-14 05:40:00,
2013-04-14 01:50:00,72.8,64.4,29.94,NNE,32,0.0,0.0,75,0.00,,,0.00,Wunderground v.1.15,2013-04-14 05:50:00,
2013-04-14 02:00:00,72.7,65.1,29.94,NNE,32,0.0,0.0,77,0.00,,,0.00,Wunderground v.1.15,2013-04-14 06:00:00,
2013-04-14 02:10:00,72.5,65.2,29.94,NNE,32,0.0,0.0,78,0.00,,,0.00,Wunderground v.1.15,2013-04-14 06:10:00,
2013-04-14 02:15:00,72.4,65.2,29.94,NNE,32,0.0,0.0,78,0.00,,,0.00,Wunderground v.1.15,2013-04-14 06:15:00,
2013-04-14 02:20:00,72.2,65.3,29.94,NNE,32,0.0,0.0,79,0.00,,,0.00,Wunderground v.1.15,2013-04-14 06:20:00,
2013-04-14 02:25:00,72.1,65.9,29.93,NNE,32,0.0,0.0,81,0.00,,,0.00,Wunderground v.1.15,2013-04-14 06:25:00,
2013-04-14 02:30:00,72.2,66.7,29.93,NNE,32,0.0,0.0,83,0.00,,,0.00,Wunderground v.1.15,2013-04-14 06:30:00,
2013-04-14 02:40:00,72.2,67.1,29.92,NNE,32,0.0,1.0,84,0.00,,,0.00,Wunderground v.1.15,2013-04-14 06:40:00,
2013-04-14 02:45:00,72.1,67.0,29.92,NNE,32,0.0,1.0,84,0.00,,,0.00,Wunderground v.1.15,2013-04-14 06:45:00,
2013-04-14 02:50:00,72.0,66.9,29.92,NNE,32,0.0,0.0,84,0.00,,,0.00,Wunderground v.1.15,2013-04-14 06:50:00,
2013-04-14 02:55:00,71.9,67.1,29.92,ENE,63,1.0,1.0,85,0.00,,,0.00,Wunderground v.1.15,2013-04-14 06:55:00,
2013-04-14 03:00:00,71.8,67.0,29.92,ENE,63,0.0,0.0,85,0.00,,,0.00,Wunderground v.1.15,2013-04-14 07:00:00,
2013-04-14 03:05:00,71.7,66.9,29.92,ENE,62,0.0,0.0,85,0.00,,,0.00,Wunderground v.1.15,2013-04-14 07:05:00,
2013-04-14 03:10:00,71.7,67.3,29.92,ENE,62,0.0,1.0,86,0.00,,,0.00,Wunderground v.1.15,2013-04-14 07:10:00,
2013-04-14 03:20:00,71.6,67.2,29.92,ENE,63,1.0,2.0,86,0.00,,,0.00,Wunderground v.1.15,2013-04-14 07:20:00,
2013-04-14 03:25:00,71.5,67.1,29.93,ENE,63,1.0,2.0,86,0.00,,,0.00,Wunderground v.1.15,2013-04-14 07:25:00,
2013-04-14 03:30:00,71.4,67.3,29.93,ENE,63,1.0,1.0,87,0.00,,,0.00,Wunderground v.1.15,2013-04-14 07:30:00,
2013-04-14 03:35:00,71.3,67.2,29.93,ENE,63,0.0,1.0,87,0.00,,,0.00,Wunderground v.1.15,2013-04-14 07:35:00,
2013-04-14 03:40:00,71.3,67.2,29.92,East,86,0.0,2.0,87,0.00,,,0.00,Wunderground v.1.15,2013-04-14 07:40:00,
2013-04-14 03:45:00,71.2,67.1,29.92,East,83,1.0,2.0,87,0.00,,,0.00,Wunderground v.1.15,2013-04-14 07:45:00,
2013-04-14 03:55:00,71.0,67.3,29.90,ENE,63,0.0,1.0,88,0.00,,,0.00,Wunderground v.1.15,2013-04-14 07:55:00,
2013-04-14 04:00:00,70.9,67.2,29.90,ENE,63,0.0,3.0,88,0.00,,,0.00,Wunderground v.1.15,2013-04-14 08:00:00,
2013-04-14 04:05:00,70.8,67.1,29.90,ENE,61,1.0,3.0,88,0.00,,,0.00,Wunderground v.1.15,2013-04-14 08:05:00,
2013-04-14 04:15:00,70.7,67.0,29.91,ENE,61,1.0,2.0,88,0.00,,,0.00,Wunderground v.1.15,2013-04-14 08:15:00,
2013-04-14 04:20:00,70.7,67.0,29.91,ENE,61,1.0,1.0,88,0.00,,,0.00,Wunderground v.1.15,2013-04-14 08:20:00,
2013-04-14 04:30:00,70.7,67.0,29.90,ENE,61,0.0,0.0,88,0.00,,,0.00,Wunderground v.1.15,2013-04-14 08:30:00,
2013-04-14 04:35:00,70.8,67.1,29.90,ENE,61,0.0,2.0,88,0.00,,,0.00,Wunderground v.1.15,2013-04-14 08:35:00,
2013-04-14 04:40:00,70.8,67.1,29.90,ENE,78,0.0,0.0,88,0.00,,,0.00,Wunderground v.1.15,2013-04-14 08:40:00,
2013-04-14 04:45:00,70.9,67.2,29.90,East,82,0.0,1.0,88,0.00,,,0.00,Wunderground v.1.15,2013-04-14 08:45:00,
2013-04-14 04:50:00,71.0,67.3,29.90,East,82,1.0,1.0,88,0.00,,,0.00,Wunderground v.1.15,2013-04-14 08:50:00,
2013-04-14 04:55:00,71.1,67.7,29.90,ENE,71,1.0,2.0,89,0.00,,,0.00,Wunderground v.1.15,2013-04-14 08:55:00,
2013-04-14 05:05:00,71.2,67.8,29.90,ENE,72,1.0,1.0,89,0.00,,,0.00,Wunderground v.1.15,2013-04-14 09:05:00,
2013-04-14 05:10:00,71.3,67.9,29.90,East,80,1.0,1.0,89,0.00,,,0.00,Wunderground v.1.15,2013-04-14 09:10:00,
2013-04-14 05:20:00,71.5,68.1,29.89,East,89,1.0,2.0,89,0.00,,,0.00,Wunderground v.1.15,2013-04-14 09:20:00,
2013-04-14 05:25:00,71.6,68.2,29.89,SE,129,1.0,2.0,89,0.00,,,0.00,Wunderground v.1.15,2013-04-14 09:25:00,
2013-04-14 05:30:00,71.6,68.2,29.89,ESE,112,1.0,3.0,89,0.00,,,0.00,Wunderground v.1.15,2013-04-14 09:30:00,
2013-04-14 05:40:00,71.7,68.3,29.89,East,93,1.0,1.0,89,0.00,,,0.00,Wunderground v.1.15,2013-04-14 09:40:00,
2013-04-14 05:45:00,71.7,68.3,29.89,East,81,1.0,1.0,89,0.00,,,0.00,Wunderground v.1.15,2013-04-14 09:45:00,
2013-04-14 05:50:00,71.7,68.3,29.89,ESE,122,1.0,2.0,89,0.00,,,0.00,Wunderground v.1.15,2013-04-14 09:50:00,
2013-04-14 05:55:00,71.8,68.4,29.89,East,96,1.0,4.0,89,0.00,,,0.00,Wunderground v.1.15,2013-04-14 09:55:00,
2013-04-14 06:05:00,71.9,68.5,29.90,ENE,57,2.0,3.0,89,0.00,,,0.00,Wunderground v.1.15,2013-04-14 10:05:00,
2013-04-14 06:10:00,71.9,68.5,29.89,NE,41,1.0,2.0,89,0.00,,,0.00,Wunderground v.1.15,2013-04-14 10:10:00,
2013-04-14 06:20:00,71.9,68.8,29.89,ENE,67,1.0,2.0,90,0.00,,,0.00,Wunderground v.1.15,2013-04-14 10:20:00,
2013-04-14 06:25:00,71.9,68.8,29.89,SE,127,1.0,2.0,90,0.00,,,0.00,Wunderground v.1.15,2013-04-14 10:25:00,
2013-04-14 06:30:00,71.9,68.8,29.90,SE,131,1.0,1.0,90,0.00,,,0.00,Wunderground v.1.15,2013-04-14 10:30:00,
2013-04-14 06:40:00,72.0,68.9,29.90,ESE,109,1.0,1.0,90,0.00,,,0.00,Wunderground v.1.15,2013-04-14 10:40:00,
2013-04-14 06:45:00,72.1,69.0,29.90,East,82,1.0,1.0,90,0.00,,,0.00,Wunderground v.1.15,2013-04-14 10:45:00,
2013-04-14 06:50:00,72.1,69.0,29.89,East,91,1.0,1.0,90,0.00,,,0.00,Wunderground v.1.15,2013-04-14 10:50:00,
2013-04-14 07:00:00,72.1,69.0,29.90,East,97,1.0,1.0,90,0.00,,,0.00,Wunderground v.1.15,2013-04-14 11:00:00,
2013-04-14 07:05:00,72.0,68.9,29.90,SE,140,1.0,1.0,90,0.00,,,0.00,Wunderground v.1.15,2013-04-14 11:05:00,
2013-04-14 07:15:00,72.0,68.9,29.89,ESE,109,1.0,3.0,90,0.00,,,0.00,Wunderground v.1.15,2013-04-14 11:15:00,
2013-04-14 07:20:00,71.9,68.8,29.90,East,96,1.0,1.0,90,0.00,,,0.00,Wunderground v.1.15,2013-04-14 11:20:00,
2013-04-14 07:30:00,71.9,68.8,29.90,SE,127,1.0,3.0,90,0.00,,,0.00,Wunderground v.1.15,2013-04-14 11:30:00,
2013-04-14 07:35:00,72.0,68.9,29.90,SE,134,1.0,3.0,90,0.00,,,0.00,Wunderground v.1.15,2013-04-14 11:35:00,
2013-04-14 07:40:00,72.0,68.9,29.90,ESE,115,1.0,1.0,90,0.00,,,0.00,Wunderground v.1.15,2013-04-14 11:40:00,
2013-04-14 07:45:00,72.0,68.9,29.90,East,90,1.0,1.0,90,0.00,,,0.00,Wunderground v.1.15,2013-04-14 11:45:00,
2013-04-14 07:55:00,72.0,68.9,29.91,SE,146,1.0,4.0,90,0.00,,,0.00,Wunderground v.1.15,2013-04-14 11:55:00,
2013-04-14 08:00:00,72.0,68.9,29.91,ESE,118,1.0,2.0,90,0.00,,,0.00,Wunderground v.1.15,2013-04-14 12:00:00,
2013-04-14 08:05:00,72.1,69.0,29.91,ESE,122,1.0,2.0,90,0.00,,,0.00,Wunderground v.1.15,2013-04-14 12:05:00,
2013-04-14 08:10:00,72.2,69.1,29.91,East,80,1.0,1.0,90,0.00,,,0.00,Wunderground v.1.15,2013-04-14 12:10:00,
2013-04-14 08:15:00,72.4,69.3,29.91,South,170,1.0,3.0,90,0.00,,,0.00,Wunderground v.1.15,2013-04-14 12:15:00,
2013-04-14 08:25:00,72.7,69.6,29.92,SE,139,2.0,5.0,90,0.00,,,0.00,Wunderground v.1.15,2013-04-14 12:25:00,
2013-04-14 08:30:00,72.9,69.8,29.92,SE,145,2.0,2.0,90,0.00,,,0.00,Wunderground v.1.15,2013-04-14 12:30:00,
2013-04-14 08:35:00,73.2,70.1,29.92,SSE,148,2.0,2.0,90,0.00,,,0.00,Wunderground v.1.15,2013-04-14 12:35:00,
2013-04-14 08:40:00,73.5,70.1,29.92,ESE,117,2.0,2.0,89,0.00,,,0.00,Wunderground v.1.15,2013-04-14 12:40:00,
2013-04-14 08:45:00,73.8,70.4,29.92,SE,139,2.0,2.0,89,0.00,,,0.00,Wunderground v.1.15,2013-04-14 12:45:00,
2013-04-14 08:55:00,74.4,70.6,29.92,East,101,2.0,3.0,88,0.00,,,0.00,Wunderground v.1.15,2013-04-14 12:55:00,
2013-04-14 09:00:00,74.8,70.7,29.92,ESE,111,2.0,3.0,87,0.00,,,0.00,Wunderground v.1.15,2013-04-14 13:00:00,
2013-04-14 09:05:00,75.1,70.6,29.92,ESE,121,3.0,3.0,86,0.00,,,0.00,Wunderground v.1.15,2013-04-14 13:05:00,
2013-04-14 09:15:00,75.7,70.9,29.92,ESE,123,2.0,3.0,85,0.00,,,0.00,Wunderground v.1.15,2013-04-14 13:15:00,
2013-04-14 09:20:00,76.0,71.2,29.92,SSE,168,2.0,4.0,85,0.00,,,0.00,Wunderground v.1.15,2013-04-14 13:20:00,
2013-04-14 09:25:00,76.5,71.7,29.92,East,101,3.0,4.0,85,0.00,,,0.00,Wunderground v.1.15,2013-04-14 13:25:00,
2013-04-14 09:35:00,77.6,72.4,29.92,ESE,123,3.0,4.0,84,0.00,,,0.00,Wunderground v.1.15,2013-04-14 13:35:00,
2013-04-14 09:40:00,78.3,72.3,29.92,East,83,3.0,3.0,82,0.00,,,0.00,Wunderground v.1.15,2013-04-14 13:40:00,
2013-04-14 09:50:00,78.4,72.1,29.92,SSE,165,3.0,3.0,81,0.00,,,0.00,Wunderground v.1.15,2013-04-14 13:50:00,
2013-04-14 10:00:00,78.9,72.2,29.93,ESE,107,3.0,6.0,80,0.00,,,0.00,Wunderground v.1.15,2013-04-14 14:00:00,
2013-04-14 10:05:00,79.2,72.5,29.93,SE,131,4.0,6.0,80,0.00,,,0.00,Wunderground v.1.15,2013-04-14 14:05:00,
2013-04-14 10:15:00,80.2,72.7,29.93,SE,140,4.0,5.0,78,0.00,,,0.00,Wunderground v.1.15,2013-04-14 14:15:00,
2013-04-14 10:25:00,81.3,72.6,29.92,SSE,157,4.0,4.0,75,0.00,,,0.00,Wunderground v.1.15,2013-04-14 14:25:00,
2013-04-14 10:30:00,81.5,73.2,29.93,SSE,159,4.0,6.0,76,0.00,,,0.00,Wunderground v.1.15,2013-04-14 14:30:00,
2013-04-14 10:40:00,81.6,73.3,29.92,SSE,163,5.0,6.0,76,0.00,,,0.00,Wunderground v.1.15,2013-04-14 14:40:00,
2013-04-14 10:50:00,81.5,72.8,29.93,SSE,162,6.0,6.0,75,0.00,,,0.00,Wunderground v.1.15,2013-04-14 14:50:00,
2013-04-14 11:00:00,82.0,72.1,29.93,SSE,160,5.0,5.0,72,0.00,,,0.00,Wunderground v.1.15,2013-04-14 15:00:00,
2013-04-14 11:10:00,81.9,71.6,29.94,South,190,6.0,6.0,71,0.00,,,0.00,Wunderground v.1.15,2013-04-14 15:10:00,
2013-04-14 11:15:00,81.9,71.6,29.94,South,178,6.0,6.0,71,0.00,,,0.00,Wunderground v.1.15,2013-04-14 15:15:00,
2013-04-14 11:25:00,81.7,71.8,29.94,South,175,6.0,11.0,72,0.00,,,0.00,Wunderground v.1.15,2013-04-14 15:25:00,
2013-04-14 11:35:00,81.1,71.6,29.95,South,169,6.0,9.0,73,0.00,,,0.00,Wunderground v.1.15,2013-04-14 15:35:00,
2013-04-14 11:45:00,80.8,71.7,29.95,SSW,192,5.0,5.0,74,0.00,,,0.00,Wunderground v.1.15,2013-04-14 15:45:00,
2013-04-14 11:55:00,80.3,72.8,29.95,SSW,199,6.0,6.0,78,0.00,,,0.00,Wunderground v.1.15,2013-04-14 15:55:00,
2013-04-14 12:05:00,80.4,73.7,29.95,SSW,198,6.0,6.0,80,0.00,,,0.00,Wunderground v.1.15,2013-04-14 16:05:00,
2013-04-14 12:10:00,80.8,74.0,29.94,South,172,6.0,8.0,80,0.00,,,0.00,Wunderground v.1.15,2013-04-14 16:10:00,
2013-04-14 12:20:00,80.7,74.0,29.94,SSE,160,6.0,6.0,80,0.00,,,0.00,Wunderground v.1.15,2013-04-14 16:20:00,
2013-04-14 12:30:00,80.3,73.9,29.93,SSE,168,7.0,9.0,81,0.00,,,0.00,Wunderground v.1.15,2013-04-14 16:30:00,
2013-04-14 12:35:00,80.1,73.7,29.92,SSE,167,7.0,9.0,81,0.00,,,0.00,Wunderground v.1.15,2013-04-14 16:35:00,
2013-04-14 12:45:00,79.9,74.3,29.92,SE,144,8.0,12.0,83,0.00,,,0.00,Wunderground v.1.15,2013-04-14 16:45:00,
2013-04-14 12:50:00,79.8,74.2,29.91,SSE,166,8.0,13.0,83,0.00,,,0.00,Wunderground v.1.15,2013-04-14 16:50:00,
2013-04-14 13:00:00,79.7,74.4,29.91,SE,146,8.0,8.0,84,0.00,,,0.00,Wunderground v.1.15,2013-04-14 17:00:00,
2013-04-14 13:10:00,79.9,74.6,29.91,South,174,7.0,9.0,84,0.00,,,0.00,Wunderground v.1.15,2013-04-14 17:10:00,
2013-04-14 13:15:00,80.0,75.1,29.91,SSE,163,9.0,9.0,85,0.00,,,0.00,Wunderground v.1.15,2013-04-14 17:15:00,
2013-04-14 13:20:00,80.1,75.2,29.91,SW,232,10.0,10.0,85,0.00,,,0.00,Wunderground v.1.15,2013-04-14 17:20:00,
2013-04-14 13:30:00,80.5,75.2,29.91,South,180,7.0,10.0,84,0.00,,,0.00,Wunderground v.1.15,2013-04-14 17:30:00,
2013-04-14 13:40:00,80.8,75.2,29.90,SSW,209,8.0,8.0,83,0.00,,,0.00,Wunderground v.1.15,2013-04-14 17:40:00,
2013-04-14 13:45:00,80.8,74.8,29.90,SSW,197,8.0,8.0,82,0.00,,,0.00,Wunderground v.1.15,2013-04-14 17:45:00,
2013-04-14 13:50:00,80.7,74.7,29.89,SE,142,9.0,10.0,82,0.00,,,0.00,Wunderground v.1.15,2013-04-14 17:50:00,
2013-04-14 13:55:00,80.6,74.2,29.89,SW,219,9.0,13.0,81,0.00,,,0.00,Wunderground v.1.15,2013-04-14 17:55:00,
2013-04-14 14:00:00,80.8,74.8,29.89,SE,130,9.0,9.0,82,0.00,,,0.00,Wunderground v.1.15,2013-04-14 18:00:00,
2013-04-14 14:10:00,81.1,74.3,29.89,SSW,192,8.0,8.0,80,0.00,,,0.00,Wunderground v.1.15,2013-04-14 18:10:00,
2013-04-14 14:15:00,81.1,74.3,29.89,SSE,155,7.0,8.0,80,0.00,,,0.00,Wunderground v.1.15,2013-04-14 18:15:00,
2013-04-14 14:20:00,81.1,74.3,29.89,SSW,192,7.0,7.0,80,0.00,,,0.00,Wunderground v.1.15,2013-04-14 18:20:00,
2013-04-14 14:30:00,81.2,74.1,29.89,SE,138,6.0,7.0,79,0.00,,,0.00,Wunderground v.1.15,2013-04-14 18:30:00,
2013-04-14 14:40:00,81.0,74.2,29.88,SSE,168,8.0,8.0,80,0.00,,,0.00,Wunderground v.1.15,2013-04-14 18:40:00,
2013-04-14 14:50:00,81.3,73.8,29.89,SE,144,8.0,8.0,78,0.00,,,0.00,Wunderground v.1.15,2013-04-14 18:50:00,
2013-04-14 14:55:00,81.4,74.6,29.88,SSW,193,8.0,8.0,80,0.00,,,0.00,Wunderground v.1.15,2013-04-14 18:55:00,
2013-04-14 15:05:00,82.4,75.2,29.88,SSE,155,8.0,9.0,79,0.00,,,0.00,Wunderground v.1.15,2013-04-14 19:05:00,
2013-04-14 15:10:00,82.5,74.6,29.87,South,175,8.0,8.0,77,0.00,,,0.00,Wunderground v.1.15,2013-04-14 19:10:00,
2013-04-14 15:20:00,82.4,74.5,29.86,SSE,153,8.0,8.0,77,0.00,,,0.00,Wunderground v.1.15,2013-04-14 19:20:00,
2013-04-14 15:30:00,81.9,74.0,29.86,SSE,160,9.0,9.0,77,0.00,,,0.00,Wunderground v.1.15,2013-04-14 19:30:00,
2013-04-14 15:35:00,81.7,74.2,29.86,SSE,167,10.0,12.0,78,0.00,,,0.00,Wunderground v.1.15,2013-04-14 19:35:00,
2013-04-14 15:45:00,81.3,73.8,29.86,SSE,148,10.0,12.0,78,0.00,,,0.00,Wunderground v.1.15,2013-04-14 19:45:00,
2013-04-14 15:55:00,81.8,74.3,29.85,South,175,9.0,11.0,78,0.00,,,0.00,Wunderground v.1.15,2013-04-14 19:55:00,
2013-04-14 16:00:00,82.0,74.5,29.85,South,178,9.0,9.0,78,0.00,,,0.00,Wunderground v.1.15,2013-04-14 20:00:00,
2013-04-14 16:10:00,81.6,74.1,29.85,SSE,167,9.0,9.0,78,0.00,,,0.00,Wunderground v.1.15,2013-04-14 20:10:00,
2013-04-14 16:20:00,81.4,73.9,29.85,SW,222,8.0,9.0,78,0.00,,,0.00,Wunderground v.1.15,2013-04-14 20:20:00,
2013-04-14 16:25:00,81.3,73.8,29.85,ESE,117,7.0,10.0,78,0.00,,,0.00,Wunderground v.1.15,2013-04-14 20:25:00,
2013-04-14 16:35:00,81.5,74.0,29.85,WSW,238,8.0,15.0,78,0.00,,,0.00,Wunderground v.1.15,2013-04-14 20:35:00,
2013-04-14 16:40:00,81.4,73.5,29.85,SSE,166,9.0,9.0,77,0.00,,,0.00,Wunderground v.1.15,2013-04-14 20:40:00,
2013-04-14 16:50:00,81.8,73.9,29.85,South,191,8.0,8.0,77,0.00,,,0.00,Wunderground v.1.15,2013-04-14 20:50:00,
2013-04-14 17:00:00,81.9,74.0,29.86,SSE,161,9.0,9.0,77,0.00,,,0.00,Wunderground v.1.15,2013-04-14 21:00:00,
2013-04-14 17:05:00,81.6,73.7,29.86,SSE,165,9.0,9.0,77,0.00,,,0.00,Wunderground v.1.15,2013-04-14 21:05:00,
2013-04-14 17:15:00,82.5,74.2,29.86,South,190,5.0,7.0,76,0.00,,,0.00,Wunderground v.1.15,2013-04-14 21:15:00,
2013-04-14 17:20:00,82.3,74.0,29.86,South,176,7.0,7.0,76,0.00,,,0.00,Wunderground v.1.15,2013-04-14 21:20:00,
2013-04-14 17:25:00,82.3,74.0,29.86,SSW,207,8.0,8.0,76,0.00,,,0.00,Wunderground v.1.15,2013-04-14 21:25:00,
2013-04-14 17:30:00,82.3,74.0,29.87,West,264,6.0,7.0,76,0.00,,,0.00,Wunderground v.1.15,2013-04-14 21:30:00,
2013-04-14 17:40:00,82.2,73.9,29.87,SSW,207,6.0,6.0,76,0.00,,,0.00,Wunderground v.1.15,2013-04-14 21:40:00,
2013-04-14 17:45:00,82.0,74.1,29.87,SSW,203,5.0,6.0,77,0.00,,,0.00,Wunderground v.1.15,2013-04-14 21:45:00,
2013-04-14 17:50:00,81.5,74.0,29.86,SE,144,5.0,7.0,78,0.00,,,0.00,Wunderground v.1.15,2013-04-14 21:50:00,
2013-04-14 17:55:00,81.2,73.7,29.87,SW,218,6.0,7.0,78,0.00,,,0.00,Wunderground v.1.15,2013-04-14 21:55:00,
2013-04-14 18:05:00,80.8,74.0,29.87,South,180,6.0,10.0,80,0.00,,,0.00,Wunderground v.1.15,2013-04-14 22:05:00,
2013-04-14 18:10:00,80.4,73.7,29.86,SSW,210,7.0,7.0,80,0.00,,,0.00,Wunderground v.1.15,2013-04-14 22:10:00,
2013-04-14 18:15:00,80.0,73.6,29.86,SW,222,8.0,8.0,81,0.00,,,0.00,Wunderground v.1.15,2013-04-14 22:15:00,
2013-04-14 18:25:00,79.6,73.6,29.86,SSW,204,7.0,13.0,82,0.00,,,0.00,Wunderground v.1.15,2013-04-14 22:25:00,
2013-04-14 18:30:00,79.4,73.4,29.87,SW,227,8.0,8.0,82,0.00,,,0.00,Wunderground v.1.15,2013-04-14 22:30:00,
2013-04-14 18:35:00,79.3,73.3,29.87,SSW,200,6.0,8.0,82,0.00,,,0.00,Wunderground v.1.15,2013-04-14 22:35:00,
2013-04-14 18:40:00,79.1,73.5,29.87,South,188,5.0,5.0,83,0.00,,,0.00,Wunderground v.1.15,2013-04-14 22:40:00,
2013-04-14 18:50:00,78.9,73.3,29.88,SW,233,4.0,5.0,83,0.00,,,0.00,Wunderground v.1.15,2013-04-14 22:50:00,
2013-04-14 18:55:00,78.8,73.6,29.88,SSW,207,4.0,5.0,84,0.00,,,0.00,Wunderground v.1.15,2013-04-14 22:55:00,
2013-04-14 19:00:00,78.6,73.4,29.88,South,184,5.0,6.0,84,0.00,,,0.00,Wunderground v.1.15,2013-04-14 23:00:00,
2013-04-14 19:05:00,78.4,73.2,29.89,SW,215,5.0,6.0,84,0.00,,,0.00,Wunderground v.1.15,2013-04-14 23:05:00,
2013-04-14 19:15:00,78.1,72.9,29.88,WSW,244,4.0,6.0,84,0.00,,,0.00,Wunderground v.1.15,2013-04-14 23:15:00,
2013-04-14 19:20:00,77.9,73.0,29.88,SW,215,6.0,8.0,85,0.00,,,0.00,Wunderground v.1.15,2013-04-14 23:20:00,
2013-04-14 19:30:00,77.5,73.0,29.89,SSE,155,5.0,5.0,86,0.00,,,0.00,Wunderground v.1.15,2013-04-14 23:30:00,
2013-04-14 19:40:00,77.2,72.7,29.89,SW,217,5.0,5.0,86,0.00,,,0.00,Wunderground v.1.15,2013-04-14 23:40:00,
2013-04-14 19:50:00,77.0,72.5,29.89,SSW,209,5.0,5.0,86,0.00,,,0.00,Wunderground v.1.15,2013-04-14 23:50:00,
2013-04-14 20:00:00,76.7,72.5,29.89,SSW,199,5.0,5.0,87,0.00,,,0.00,Wunderground v.1.15,2013-04-15 00:00:00,
2013-04-14 20:10:00,76.6,72.4,29.89,SSW,202,4.0,5.0,87,0.00,,,0.00,Wunderground v.1.15,2013-04-15 00:10:00,
2013-04-14 20:20:00,76.5,72.7,29.90,SSW,208,4.0,4.0,88,0.00,,,0.00,Wunderground v.1.15,2013-04-15 00:20:00,
2013-04-14 20:30:00,76.4,72.6,29.91,SW,219,4.0,6.0,88,0.00,,,0.00,Wunderground v.1.15,2013-04-15 00:30:00,
2013-04-14 20:35:00,76.4,72.6,29.91,SSW,209,3.0,6.0,88,0.00,,,0.00,Wunderground v.1.15,2013-04-15 00:35:00,
2013-04-14 20:45:00,76.4,72.6,29.91,SW,217,3.0,4.0,88,0.00,,,0.00,Wunderground v.1.15,2013-04-15 00:45:00,
2013-04-14 20:50:00,76.4,72.6,29.91,WSW,240,3.0,5.0,88,0.00,,,0.00,Wunderground v.1.15,2013-04-15 00:50:00,
2013-04-14 20:55:00,76.4,72.6,29.91,WSW,240,3.0,5.0,88,0.00,,,0.00,Wunderground v.1.15,2013-04-15 00:55:00,
2013-04-14 21:05:00,76.5,72.7,29.92,SW,227,4.0,6.0,88,0.00,,,0.00,Wunderground v.1.15,2013-04-15 01:05:00,
2013-04-14 21:15:00,76.5,72.7,29.93,SSW,198,4.0,5.0,88,0.00,,,0.00,Wunderground v.1.15,2013-04-15 01:15:00,
2013-04-14 21:20:00,76.6,72.8,29.93,SW,228,3.0,4.0,88,0.00,,,0.00,Wunderground v.1.15,2013-04-15 01:20:00,
2013-04-14 21:30:00,76.6,72.8,29.95,SW,236,2.0,2.0,88,0.00,,,0.00,Wunderground v.1.15,2013-04-15 01:30:00,
2013-04-14 21:35:00,76.3,72.1,29.98,NW,325,1.0,3.0,87,0.00,,,0.00,Wunderground v.1.15,2013-04-15 01:35:00,
2013-04-14 21:40:00,74.5,67.9,29.98,NNW,339,2.0,8.0,80,0.00,,,0.00,Wunderground v.1.15,2013-04-15 01:40:00,
2013-04-14 21:45:00,73.2,65.9,29.99,NNW,332,3.0,8.0,78,0.00,,,0.00,Wunderground v.1.15,2013-04-15 01:45:00,
2013-04-14 21:50:00,72.3,64.7,29.99,NW,326,4.0,4.0,77,0.00,,,0.00,Wunderground v.1.15,2013-04-15 01:50:00,
2013-04-14 21:55:00,71.9,64.7,30.00,NNW,339,4.0,4.0,78,0.00,,,0.00,Wunderground v.1.15,2013-04-15 01:55:00,
2013-04-14 22:05:00,71.3,64.4,29.99,NNW,334,3.0,4.0,79,0.00,,,0.00,Wunderground v.1.15,2013-04-15 02:05:00,
2013-04-14 22:10:00,71.1,64.3,30.00,NNW,340,3.0,8.0,79,0.00,,,0.00,Wunderground v.1.15,2013-04-15 02:10:00,
2013-04-14 22:15:00,70.8,64.0,30.00,NW,319,3.0,8.0,79,0.00,,,0.00,Wunderground v.1.15,2013-04-15 02:15:00,
2013-04-14 22:20:00,70.6,64.1,30.01,NNW,327,3.0,3.0,80,0.00,,,0.00,Wunderground v.1.15,2013-04-15 02:20:00,
2013-04-14 22:25:00,70.5,63.7,30.01,NNW,329,3.0,3.0,79,0.00,,,0.00,Wunderground v.1.15,2013-04-15 02:25:00,
2013-04-14 22:35:00,70.5,63.7,30.01,NNW,331,2.0,3.0,79,0.00,,,0.00,Wunderground v.1.15,2013-04-15 02:35:00,
2013-04-14 22:40:00,70.5,63.7,30.00,NNW,342,2.0,4.0,79,0.00,,,0.00,Wunderground v.1.15,2013-04-15 02:40:00,
2013-04-14 22:45:00,70.4,63.6,30.01,NNW,342,2.0,4.0,79,0.00,,,0.00,Wunderground v.1.15,2013-04-15 02:45:00,
2013-04-14 22:50:00,70.5,63.3,30.01,NNW,342,3.0,4.0,78,0.00,,,0.00,Wunderground v.1.15,2013-04-15 02:50:00,
2013-04-14 22:55:00,70.5,63.3,30.01,NNW,342,2.0,4.0,78,0.00,,,0.00,Wunderground v.1.15,2013-04-15 02:55:00,
2013-04-14 23:00:00,70.5,63.3,30.00,NNW,342,2.0,2.0,78,0.00,,,0.00,Wunderground v.1.15,2013-04-15 03:00:00,
2013-04-14 23:10:00,70.6,63.4,30.00,NNW,344,2.0,3.0,78,0.00,,,0.00,Wunderground v.1.15,2013-04-15 03:10:00,
2013-04-14 23:15:00,70.6,63.4,29.99,NNW,344,2.0,3.0,78,0.00,,,0.00,Wunderground v.1.15,2013-04-15 03:15:00,
2013-04-14 23:20:00,70.6,63.8,29.99,NNW,344,2.0,2.0,79,0.00,,,0.00,Wunderground v.1.15,2013-04-15 03:20:00,
2013-04-14 23:25:00,70.6,63.8,29.99,NNW,345,2.0,2.0,79,0.00,,,0.00,Wunderground v.1.15,2013-04-15 03:25:00,
2013-04-14 23:30:00,70.7,63.9,29.99,NNW,345,2.0,4.0,79,0.00,,,0.00,Wunderground v.1.15,2013-04-15 03:30:00,
2013-04-14 23:40:00,70.8,63.6,29.99,NNW,345,1.0,1.0,78,0.00,,,0.00,Wunderground v.1.15,2013-04-15 03:40:00,
2013-04-14 23:45:00,70.9,63.3,29.99,NNW,345,1.0,1.0,77,0.00,,,0.00,Wunderground v.1.15,2013-04-15 03:45:00,
2013-04-14 23:50:00,71.0,63.4,29.98,NNW,346,1.0,1.0,77,0.00,,,0.00,Wunderground v.1.15,2013-04-15 03:50:00,
2013-04-14 23:55:00,71.1,63.5,29.98,NNE,14,1.0,1.0,77,0.00,,,0.00,Wunderground v.1.15,2013-04-15 03:55:00,